FW3784 Weather Reports


time (UTC)temp
F
wind
direction
speed
knots
gust
knots
rain 1hr
in
rain 24hr
in
rain mn
in
humidity
%
barometer
mb
20260504214557 67 28 0.0 0.0 0.00 0.00 0.00 37 1004.9
20260504213100 67 32 0.0 0.0 0.00 0.00 0.00 38 1004.9
20260504211556 67 66 0.0 0.0 0.00 0.00 0.00 39 1004.8
20260504210053 68 61 0.0 0.9 0.00 0.00 0.00 37 1004.8
20260504204552 67 34 0.0 1.7 0.00 0.00 0.00 38 1004.8
20260504203053 68 321 0.0 0.0 0.00 0.00 0.00 38 1004.8
20260504201552 68 43 0.0 0.9 0.00 0.00 0.00 37 1004.8
20260504200055 68 48 0.0 0.0 0.00 0.00 0.00 37 1004.9
20260504194549 68 51 0.0 0.9 0.00 0.00 0.00 36 1005.1
20260504193047 68 5 0.0 0.9 0.00 0.00 0.00 37 1005.2
20260504191554 68 346 0.0 0.9 0.00 0.00 0.00 37 1005.1
20260504190050 67 304 0.0 0.0 0.00 0.00 0.00 38 1005.4
20260504184552 67 78 0.0 0.0 0.00 0.00 0.00 39 1005.4
20260504183047 66 64 0.0 0.9 0.00 0.00 0.00 39 1005.5
20260504181539 65 53 0.0 0.0 0.00 0.00 0.00 42 1005.7
20260504180033 63 315 0.0 0.0 0.00 0.00 0.00 44 1005.9
20260504174531 63 115 0.0 0.0 0.00 0.00 0.00 43 1005.8
20260504173029 63 293 0.0 0.0 0.00 0.00 0.00 42 1005.7
20260504171528 63 306 0.0 0.9 0.00 0.00 0.00 42 1005.8
20260504081515 37 346 0.0 0.0 0.00 0.00 0.00 87 1008.9
20260504044551 38 346 0.0 0.0 0.00 0.00 0.00 75 1008.7
20260504043042 38 346 0.0 0.0 0.00 0.00 0.00 71 1008.6
20260504041538 39 346 0.0 0.0 0.00 0.00 0.00 69 1008.5
20260504040039 39 346 0.0 0.0 0.00 0.00 0.00 68 1008.4
20260504034508 40 346 0.0 0.0 0.00 0.04 0.00 69 1008.4
20260504033006 40 346 0.0 0.0 0.00 0.04 0.00 66 1008.2
20260504031505 41 346 0.0 0.0 0.00 0.04 0.00 63 1008.2
20260504030011 41 346 0.0 0.0 0.00 0.07 0.00 64 1008.2
20260504024506 41 346 0.0 0.0 0.00 0.07 0.00 62 1008.2
20260504023003 42 346 0.0 0.0 0.00 0.07 0.00 61 1008.3
20260504021502 42 346 0.0 0.0 0.00 0.07 0.00 60 1008.3
20260504020001 43 346 0.0 0.0 0.00 0.07 0.00 59 1008.2
20260504014502 43 346 0.0 0.0 0.00 0.07 0.00 58 1008.2
20260504013001 44 346 0.0 0.0 0.00 0.07 0.00 58 1008.2
20260504011600 44 346 0.0 0.0 0.00 0.07 0.00 57 1008.1
20260504010114 44 346 0.0 0.0 0.00 0.07 0.00 56 1007.9
20260504004626 45 346 0.0 0.0 0.00 0.07 0.00 56 1007.7
20260504003059 45 346 0.0 0.0 0.00 0.07 0.00 54 1007.5
20260504001612 46 346 0.0 0.0 0.00 0.07 0.00 54 1007.3
20260504000058 46 289 0.0 0.0 0.00 0.07 0.00 52 1007.1
20260503234558 47 286 0.0 0.0 0.00 0.08 0.00 53 1006.9
20260503233058 47 69 0.0 0.0 0.00 0.08 0.00 51 1006.9
20260503231558 48 268 0.0 0.0 0.00 0.08 0.00 50 1006.9
20260503224556 48 248 0.0 0.0 0.00 0.08 0.00 48 1006.8
20260503223059 49 99 0.0 0.0 0.00 0.08 0.00 49 1006.7
20260503221555 49 99 0.0 0.0 0.00 0.08 0.00 49 1006.5
20260503220152 49 193 0.0 0.0 0.00 0.08 0.00 48 1006.4